www.pogodaiklimat.ru

Погода и климат >> Архив погоды >> Австрия >> Санкт-Андре


ПОГОДА в Санкт-Андре

  • Прогноз погоды в Санкт-Андре
  • Монитор погоды в Санкт-Андре

АРХИВ ПОГОДЫ в Санкт-Андре

Время (UTC), дата Ветер
(напр.,м/с)
 
Видим.   Явления Облачность Т
(С)
Тd
(С)
f
(%)
Тe
(С)
Тes
(С)
Комфортность P
(гПа)
Po
(гПа)
Тmin
(С)
Tmax
(С)
R
(мм)
R24
(мм)
S
(см)
10 14.08 Ю 1 н/о н/о +18.6 +13.2 71 +20 +20 1017.2 970.7
11 14.08 Ю 1 н/о н/о +19.5 +12.9 66 +22 +22 комфорт 1016.8 970.4
12 14.08 ЮВ 2 н/о н/о +20.2 +14.0 68 +23 +23 комфорт 1016.7 970.4 0.0
13 14.08 В 2 н/о н/о +20.5 +14.6 69 +24 +24 комфорт 1016.6 970.4
14 14.08 ЮВ 2 н/о н/о +19.2 +13.0 67 +21 +21 комфорт 1016.8 970.4
15 14.08 ЮВ 1 н/о н/о +19.8 +14.5 71 +23 +23 комфорт 1016.6 970.3
16 14.08 Ю 1 н/о н/о +21.2 +13.0 59 +23 +23 комфорт 1016.0 969.9
17 14.08 Ю 1 н/о н/о +18.8 +13.0 69 +21 +21 комфорт 1016.5 970.0
18 14.08 штиль 0 н/о н/о +17.5 +13.5 77 +17 +17 1017.1 970.4 +14.7 +21.7 0.0
19 14.08 С 1 н/о н/о +15.1 +11.7 80 +16 +16 1018.3 971.1
20 14.08 штиль 0 н/о н/о +13.6 +11.4 87 +13 +13 1019.3 971.8
21 14.08 штиль 0 н/о н/о +12.2 +10.7 91 +12 +12 1019.9 972.2
22 14.08 штиль 0 н/о н/о +11.4 +10.4 94 +11 +11 1020.3 972.4
23 14.08 штиль 0 н/о н/о +10.4 +9.4 94 +10 +10 1020.5 972.4
00 15.08 Ю 1 н/о н/о +9.8 +9.0 95 +9 +9 1020.6 972.4
01 15.08 штиль 0 н/о н/о +9.2 +8.4 95 +8 +8 1020.7 972.4
02 15.08 штиль 0 н/о н/о +8.7 +7.9 95 +8 +8 1020.6 972.2
03 15.08 штиль 0 н/о н/о +8.3 +7.7 96 +7 +7 1020.5 972.1
04 15.08 штиль 0 н/о н/о +7.6 +7.2 97 +7 +7 1020.7 972.1
05 15.08 В 1 н/о н/о +7.5 +7.0 97 +6 +6 1021.0 972.4
06 15.08 ЮВ 1 н/о н/о +9.4 +8.7 95 +9 +9 1020.6 972.4 +7.3 +18.0
07 15.08 В 1 н/о н/о +11.8 +9.0 83 +12 +12 1019.8 972.0
08 15.08 С 1 н/о н/о +15.0 +9.4 69 +16 +16 1018.7 971.5
09 15.08 В 1 н/о н/о +18.3 +11.5 65 +20 +20 1017.7 971.1
10 15.08 ЮВ 1 н/о н/о +20.6 +10.6 53 +23 +23 комфорт 1016.3 970.1
11 15.08 В 2 н/о н/о +21.9 +10.7 49 +24 +24 комфорт 1015.3 969.3
12 15.08 ЮВ 2 н/о н/о +23.5 +10.0 42 +25 +25 комфорт 1014.2 968.5
13 15.08 ЮВ 2 н/о н/о +25.1 +11.6 43 +27 +27 жарко 1013.3 967.9
14 15.08 ЮВ 2 н/о н/о +25.3 +10.6 40 +26 +26 жарко 1012.8 967.4
15 15.08 ЮВ 1 н/о н/о +24.7 +11.4 43 +26 +26 жарко 1012.7 967.3
16 15.08 ЮВ 1 н/о н/о +23.3 +11.2 46 +26 +26 жарко 1012.6 967.0
17 15.08 Ю 1 н/о н/о +22.0 +12.5 55 +25 +25 комфорт 1012.9 967.1
18 15.08 ЮЗ 1 н/о н/о +19.6 +13.3 67 +22 +22 комфорт 1013.7 967.5 +8.7 +26.0
19 15.08 С 2 н/о н/о +17.3 +13.2 77 +18 +18 1014.7 968.1
20 15.08 штиль 0 н/о н/о +16.2 +12.8 80 +16 +16 1016.0 969.1
21 15.08 ЮЗ 1 н/о осадки н/о +15.9 +14.0 88 +17 +17 1016.4 969.5 0.3
22 15.08 штиль 0 н/о в посл. час осадки н/о +15.5 +14.3 93 +15 +15 1017.0 970.0 0.2
23 15.08 штиль 0 н/о осадки н/о +15.4 +14.4 94 +15 +15 1017.5 970.5 0.2
00 16.08 СВ 1 н/о осадки {ливн. осадки} н/о +15.5 +14.5 94 +16 +16 1017.5 970.5 1
01 16.08 штиль 0 н/о в посл. час осадки н/о +15.2 +14.3 94 +15 +15 1018.1 971.0 0.1
02 16.08 ЮЗ 1 н/о н/о +14.8 +14.1 96 +15 +15 1018.0 970.8
03 16.08 З 1 н/о {осадки} н/о +14.6 +13.9 96 +15 +15 1018.0 970.8 0.1
04 16.08 Ю 1 н/о н/о +14.4 +13.7 96 +15 +15 1018.2 971.0
05 16.08 штиль 0 н/о н/о +14.5 +13.9 96 +14 +14 1018.4 971.2
06 16.08 штиль 0 н/о {осадки} н/о +14.8 +14.0 95 +14 +14 1019.1 971.9 +14.4 +20.1 1
07 16.08 Ю 1 н/о в посл. час осадки н/о +15.9 +14.8 93 +17 +17 1019.0 972.0 0.0
08 16.08 ЮВ 1 н/о н/о +17.9 +14.9 83 +19 +19 1018.8 972.1 0.0
09 16.08 ЮВ 1 н/о {осадки} н/о +19.1 +14.5 75 +22 +22 комфорт 1018.5 972.0 0.0
10 16.08 В 1 н/о н/о +19.8 +14.4 71 +23 +23 комфорт 1018.0 971.6
11 16.08 СВ 1 н/о н/о +19.7 +14.2 71 +23 +23 комфорт 1017.9 971.5 0.0
12 16.08 ЮЗ 1 н/о в посл. час осадки н/о +19.2 +13.4 69 +22 +22 комфорт 1017.8 971.3 0.1
13 16.08 Ю 1 н/о н/о +22.2 +13.1 56 +25 +25 комфорт 1016.8 970.8 0.0
14 16.08 штиль 0 н/о н/о +22.2 +13.4 57 +25 +25 комфорт 1016.4 970.5
15 16.08 СЗ 1 н/о н/о +21.2 +12.6 58 +23 +23 комфорт 1016.5 970.4 0.0
16 16.08 С 1 н/о в посл. час осадки н/о +21.2 +12.6 58 +23 +23 комфорт 1016.2 970.1 0.1
17 16.08 С 1 н/о н/о +20.4 +12.9 62 +24 +24 комфорт 1016.3 970.1
18 16.08 С 1 н/о {осадки} н/о +18.0 +13.1 73 +19 +19 1017.0 970.4 +14.7 +23.4 0.2
19 16.08 штиль 0 н/о н/о +15.5 +12.8 84 +15 +15 1018.5 971.4
20 16.08 СЗ 1 н/о н/о +14.3 +12.2 87 +15 +15 1019.2 971.9
21 16.08 штиль 0 н/о н/о +13.1 +11.7 91 +13 +13 1019.5 972.0
22 16.08 штиль 0 н/о н/о +12.3 +11.1 92 +12 +12 1019.9 972.2
23 16.08 С 1 н/о н/о +11.5 +10.6 94 +11 +11 1019.7 971.9
00 17.08 штиль 0 н/о н/о +10.8 +9.9 94 +10 +10 1019.5 971.6
01 17.08 штиль 0 н/о н/о +10.4 +9.7 95 +10 +10 1019.9 971.9
02 17.08 ЮЗ 1 н/о н/о +10.0 +9.3 95 +9 +9 1019.5 971.4
03 17.08 штиль 0 н/о н/о +9.6 +9.0 96 +9 +9 1019.3 971.2
04 17.08 ЮЗ 1 н/о н/о +9.4 +9.0 97 +9 +9 1019.7 971.5
05 17.08 штиль 0 н/о н/о +9.5 +9.2 98 +9 +9 1019.8 971.6
06 17.08 СВ 1 н/о н/о +11.4 +10.7 95 +11 +11 1019.8 972.0 +9.0 +18.5
07 17.08 СВ 1 н/о н/о +13.4 +11.8 90 +14 +14 1019.4 971.9
08 17.08 СВ 1 н/о н/о +15.0 +11.5 80 +16 +16 1018.8 971.6
09 17.08 В 1 н/о н/о +18.3 +13.6 74 +20 +20 1018.1 971.5
10 17.08 В 1 н/о н/о +20.8 +14.5 67 +25 +25 комфорт 1017.3 971.1
11 17.08 ЮВ 1 н/о н/о +22.6 +14.2 59 +26 +26 жарко 1016.1 970.2
12 17.08 ЮВ 1 н/о н/о +24.9 +14.0 51 +27 +27 жарко 1014.8 969.3
13 17.08 ЮВ 1 н/о н/о +26.3 +14.6 49 +29 +29 жарко 1014.0 968.8
14 17.08 ЮВ 1 н/о н/о +27.2 +14.0 44 +29 +29 жарко 1013.1 968.1
15 17.08 ЮВ 2 н/о н/о +27.3 +14.3 45 +30 +30 душно 1012.6 967.6
16 17.08 ЮВ 2 н/о н/о +26.4 +15.2 50 +29 +29 жарко 1012.7 967.6
17 17.08 Ю 1 н/о н/о +24.1 +16.8 64 +28 +28 душно 1013.3 967.8
18 17.08 ЮЗ 1 н/о н/о +22.3 +15.9 67 +26 +26 жарко 1013.6 967.8 +10.9 +28.1
19 17.08 С 1 н/о н/о +20.3 +16.0 76 +24 +24 комфорт 1014.7 968.6
20 17.08 С 1 н/о н/о +19.3 +15.6 79 +22 +22 комфорт 1014.9 968.6
21 17.08 штиль 0 н/о н/о +18.4 +15.3 82 +19 +19 1015.0 968.6
22 17.08 ЮЗ 1 н/о н/о +17.4 +15.4 88 +18 +18 1015.4 968.8
23 17.08 С 1 н/о н/о +16.2 +14.9 92 +17 +17 1015.6 968.8
00 18.08 штиль 0 н/о н/о +15.4 +14.3 93 +15 +15 1016.0 969.0
01 18.08 штиль 0 н/о н/о +15.6 +14.5 93 +15 +15 1015.9 969.0
02 18.08 В 1 н/о н/о +15.8 +14.7 93 +16 +16 1015.8 968.9
03 18.08 С 1 н/о н/о +15.4 +14.5 94 +16 +16 1015.7 968.8
04 18.08 штиль 0 н/о н/о +14.7 +13.8 94 +14 +14 1016.0 968.9
05 18.08 штиль 0 н/о н/о +14.8 +14.0 95 +14 +14 1016.1 969.0
06 18.08 штиль 0 н/о н/о +16.0 +14.9 93 +16 +16 1016.1 969.2 +14.6 +22.7
07 18.08 штиль 0 н/о н/о +18.5 +15.1 81 +19 +19 1015.6 969.2
08 18.08 штиль 0 н/о н/о +20.6 +15.3 72 +23 +23 комфорт 1015.2 969.1
09 18.08 В 1 н/о н/о +23.6 +16.1 63 +27 +27 жарко 1014.4 968.8
10 18.08 В 1 н/о н/о +25.4 +17.0 60 +29 +29 душно 1013.9 968.6
11 18.08 В 1 н/о н/о +27.2 +17.5 55 +31 +31 душно 1013.1 968.1
12 18.08 ЮВ 1 н/о н/о +28.7 +16.6 48 +32 +32 душно 1012.3 967.6
13 18.08 В 2 н/о н/о +30.4 +17.0 45 +34 +34 очень
душно
1011.6 967.1
14 18.08 ЮВ 2 н/о н/о +30.6 +16.3 42 +34 +34 очень
душно
1011.2 966.8
15 18.08 ЮВ 2 н/о н/о +29.6 +17.6 48 +34 +34 очень
душно
1011.1 966.6
16 18.08 Ю 3 н/о н/о +28.5 +17.3 51 +33 +33 очень
душно
1011.3 966.6
17 18.08 Ю 1 н/о н/о +27.5 +17.8 55 +32 +32 очень
душно
1011.5 966.6
18 18.08 Ю 1 н/о н/о +24.4 +17.4 65 +28 +28 душно 1011.9 966.6 +15.9 +31.0
19 18.08 СЗ 1 н/о н/о +21.8 +17.3 76 +26 +26 душно 1012.9 967.1 0.0
20 18.08 СЗ 1 н/о н/о +20.2 +17.2 83 +24 +24 комфорт 1013.7 967.6
21 18.08 штиль 0 н/о н/о +19.1 +17.0 88 +21 +21 комфорт 1014.1 967.9 0.0
22 18.08 штиль 0 н/о н/о +18.5 +16.6 89 +19 +19 1014.6 968.2
23 18.08 В 1 н/о н/о +17.4 +16.0 91 +18 +18 1015.0 968.4
00 19.08 штиль 0 н/о н/о +16.6 +15.7 94 +16 +16 1015.1 968.4 0.0
01 19.08 штиль 0 н/о н/о +15.7 +14.8 94 +15 +15 1015.3 968.4
02 19.08 С 1 н/о н/о +14.9 +14.1 95 +15 +15 1015.5 968.5
03 19.08 С 1 н/о н/о +14.3 +13.5 95 +15 +15 1016.0 968.8
04 19.08 штиль 0 н/о н/о +14.0 +13.3 96 +14 +14 1016.2 969.0
05 19.08 штиль 0 н/о н/о +13.7 +13.1 96 +13 +13 1016.5 969.2
06 19.08 В 1 н/о н/о +15.6 +14.8 95 +16 +16 1016.8 969.8 +13.6 +24.8 0.0
07 19.08 штиль 0 н/о н/о +19.1 +15.9 82 +20 +20 1016.3 969.9
08 19.08 ЮЗ 1 н/о н/о +22.2 +16.4 70 +26 +26 душно 1015.9 970.0
09 19.08 ЮВ 1 н/о н/о +25.0 +16.8 60 +29 +29 душно 1015.5 970.1
10 19.08 В 1 н/о н/о +27.7 +18.6 58 +33 +33 очень
душно
1015.2 970.2
11 19.08 В 1 н/о н/о +28.7 +16.5 48 +32 +32 душно 1014.8 969.9
12 19.08 ЮЗ 1 н/о н/о +29.5 +15.5 43 +32 +32 душно 1014.5 969.8
13 19.08 Ю 2 н/о н/о +30.3 +15.1 40 +33 +33 душно 1014.3 969.7
14 19.08 Ю 2 н/о н/о +30.1 +17.1 46 +34 +34 очень
душно
1014.1 969.5
15 19.08 Ю 2 н/о н/о +29.6 +18.2 50 +34 +34 очень
душно
1013.7 969.1
16 19.08 Ю 3 н/о н/о +28.2 +17.3 52 +32 +32 душно 1013.8 968.9
17 19.08 Ю 2 н/о н/о +26.5 +17.5 58 +31 +31 душно 1014.1 969.0
18 19.08 СЗ 3 н/о н/о +23.8 +15.5 60 +27 +27 жарко 1016.6 970.9 +15.6 +30.9 0.0
19 19.08 З 2 н/о н/о +19.1 +17.6 91 +21 +21 комфорт 1018.3 971.9 7
20 19.08 СВ 2 н/о н/о +18.9 +17.4 91 +21 +21 комфорт 1018.9 972.4
21 19.08 штиль 0 н/о {ливн. осадки} н/о +18.7 +17.5 93 +20 +20 1019.1 972.6 7
22 19.08 Ю 1 н/о н/о +18.0 +17.2 95 +19 +19 1019.7 973.0
23 19.08 штиль 0 н/о н/о +17.6 +16.9 96 +18 +18 1019.7 973.0
00 20.08 Ю 1 н/о {ливн. осадки} н/о +16.9 +16.4 97 +18 +18 1019.9 973.0 7
01 20.08 З 1 н/о н/о +16.7 +16.4 98 +18 +18 1019.9 973.0
02 20.08 штиль 0 н/о н/о +17.0 +16.7 98 +17 +17 1020.2 973.3
03 20.08 штиль 0 н/о н/о +16.5 +16.3 99 +16 +16 1020.3 973.3
04 20.08 штиль 0 н/о н/о +16.6 +16.3 98 +16 +16 1020.7 973.7
05 20.08 ЮВ 1 н/о н/о +16.8 +16.5 98 +18 +18 1020.6 973.7
06 20.08 З 1 н/о н/о +17.5 +16.9 96 +19 +19 1020.8 974.0 +16.4 +25.8 7
07 20.08 ЮВ 1 н/о н/о +18.4 +17.3 93 +20 +20 1020.9 974.2
08 20.08 В 1 н/о н/о +20.0 +18.4 91 +24 +24 комфорт 1020.7 974.3
09 20.08 В 1 н/о н/о +22.2 +17.4 74 +27 +27 душно 1020.1 974.1
10 20.08 В 1 н/о н/о +23.9 +17.4 67 +28 +28 душно 1019.5 973.7
11 20.08 Ю 1 н/о н/о +26.1 +19.3 66 +31 +31 очень
душно
1018.7 973.3
12 20.08 В 1 н/о н/о +27.2 +18.9 60 +32 +32 очень
душно
1017.8 972.6
13 20.08 В 1 н/о н/о +28.5 +19.0 56 +34 +34 очень
душно
1016.9 972.0
14 20.08 В 1 н/о н/о +29.7 +18.0 49 +34 +34 очень
душно
1016.4 971.6
15 20.08 ЮЗ 1 н/о н/о +30.5 +18.6 49 +35 +35 очень
душно
1015.7 971.1
16 20.08 Ю 1 н/о н/о +29.3 +18.2 51 +34 +34 очень
душно
1015.7 970.9
17 20.08 ЮЗ 1 н/о н/о +27.8 +18.8 58 +33 +33 очень
душно
1015.8 970.8
18 20.08 СЗ 1 н/о н/о +24.2 +19.4 75 +29 +29 душно 1016.5 971.0 +17.3 +30.6
19 20.08 С 1 н/о н/о +22.4 +19.4 83 +28 +28 душно 1017.3 971.5
20 20.08 С 1 н/о н/о +21.1 +18.7 86 +25 +25 комфорт 1017.9 971.8
21 20.08 штиль 0 н/о н/о +19.9 +18.4 91 +23 +23 комфорт 1018.3 972.0
22 20.08 штиль 0 н/о н/о +19.1 +17.9 93 +21 +21 комфорт 1018.3 971.9
23 20.08 СВ 1 н/о н/о +18.4 +17.3 93 +20 +20 1018.6 972.0
00 21.08 штиль 0 н/о н/о +17.6 +16.6 94 +18 +18 1018.7 972.0
01 21.08 штиль 0 н/о н/о +17.4 +16.7 96 +17 +17 1019.0 972.3
02 21.08 штиль 0 н/о н/о +17.5 +16.7 95 +17 +17 1019.4 972.7
03 21.08 штиль 0 н/о н/о +17.4 +16.7 96 +17 +17 1019.7 972.9
04 21.08 С 2 н/о н/о +18.5 +14.9 80 +20 +20 1020.1 973.4
05 21.08 С 5 н/о н/о +19.9 +12.8 64 +22 +22 комфорт 1021.0 974.5
06 21.08 С 4 н/о н/о +20.6 +12.2 59 +23 +23 комфорт 1021.6 975.2 +17.3 +24.6
07 21.08 С 5 н/о н/о +20.6 +12.3 59 +23 +23 комфорт 1022.4 975.9
08 21.08 С 6
{13}
н/о н/о +20.6 +11.8 57 +22 +22 комфорт 1022.9 976.4

 

Местоположение метеостанции Санкт-Андре (Австрия): широта 46.77 долгота 14.83 высота над уровнем моря 404 м.

В архиве по умолчанию представлена погода в Санкт-Андре за последнюю неделю. Архивные данные за месяц целиком и за предыдущие месяцы, начиная с января 2011 года, Вы можете получить, выбрав интересующий диапазон дат из раскрывающегося списка и нажав кнопку "Ввод!".


*Определитесь, кто Вы:
робот инопланетянин человек

Внимание! Время в таблицах - всемирное. Для получения местного времени необходимо прибавить поправку, которая равна 1 ч.

Смотрите также архив погоды в соседних городах и на ближайших метеорологических станциях:

Погода в Прайтенеге (Австрия) (19 км)
Погода в Файстриц-об-Блайбурге (Австрия) (23 км)
Погода в Дойчландсберге (Австрия) (31 км)
Погода Айзенкаппель-Феллах (Австрия) (37 км)
Погода в Кёфлаге (Австрия) (38 км)
Погода в Словень-Градеце (Словения) (39 км)
Погода в Клагенфурте (Австрия) (40 км)
Погода в Клагенфурте (Австрия) (42 км)
Погода в Ноймаркте (Австрия) (46 км)
Погода в Цельтвеге (Австрия) (48 км)

Пояснения к столбцам:

Ветер - указаны скорость ветра в м/с - средняя за 10 мин, порывы в срок и между сроками (в фигурных скобках) и направление, откуда дует ветер: С - северный, СВ - северо-восточный, В - восточный, ЮВ - юго-восточный, Ю - южный, ЮЗ - юго-западный, З - западный, СЗ - северо-западный.
Видимость - горизонтальная дальность видимости в метрах или километрах. При видимости от 1 до 10 км при отсутствии осадков обычно наблюдается дымка, при ухудшении видимости до 1 км и менее - туман. В сухую погоду видимость может ухудшаться дымом, пылью или мглою.
Явления - указаны атмосферные явления, наблюдавшиеся в срок или в последний час перед сроком; фигурными скобками обозначены явления, наблюдавшиеся между сроками (за 1-3 часа до срока); квадратными скобками обозначены град или гололедные отложения с указанием их диаметра в мм.
Облачность - указаны через наклонную черту общая и нижняя облачность в баллах и высота нижней границы облаков в метрах; квадратными скобками обозначены формы облаков: Ci - перистые, Cs - перисто-слоистые, Cc - перисто-кучевые, Ac - высококучевые, As - высокослоистые, Sc - слоисто-кучевые, Ns - слоисто-дождевые, Cu - кучевые, Cb - кучево-дождевые. Подробнее классификацию облаков см. в Атласе облаков (PDF).
T - Температура воздуха - температура, измеренная на высоте 2 м над землей.
Td - Температура точки росы - температура, при понижении до которой содержащийся в воздухе водяной пар достигнет насыщения.
f - Относительная влажность воздуха - влажноcть воздуха, измеренная на высоте 2 м над землей.
Te - Эффективная температура - температура, которую ощущает одетый по сезону человек в тени. Характеристика душности погоды. При расчете учитывается влияние влажности воздуха и скорости ветра на теплоощущения человека.
Tes - Эффективная температура на солнце - температура, которую ощущает человек, с поправкой на солнечный нагрев. Характеристика знойности погоды. Зависит от высоты солнца над горизонтом, облачности и скорости ветра. Ночью, в пасмурную погоду, а также при ветре 12 м/с и более поправка равна нулю.
P - Атмосферное давление - приведенное к уровню моря атмосферное давление.
Po - Атмосферное давление - измеренное на уровне метеостанции атмосферное давление.
Tmin - Минимальная температура - минимум температуры воздуха на высоте 2 м над землей.
Tmax - Максимальная температура - максимум температуры воздуха на высоте 2 м над землей.
R - Количество осадков - Количество выпавших осадков за период времени, мм. При наведении курсора мыши на число - период времени, за который выпало указанное количество осадков.
R24 - Количество осадков - Количество выпавших осадков за 24 часа, мм.
S - Снежный покров - Высота снежного покрова, см. При наведении курсора мыши на число - состояние снежного покрова и степень покрытия местности в баллах.